Regional Weather Roundup
Issued by NWS

Home | Current Version | Previous Version | Text Only | Print | Product List | Glossary Off
Versions: 1 2 3 4 5 6 7 8 9 10 11 12 13 14 15 16 17 18 19 20 21 22 23 24 25 26 27 28 29 30 31 32 33 34 35 36 37 38 39 40 41 42 43 44 45 46 47 48 49 50

236
ASUS45 KPSR 290410
RWRAZ

ARIZONA HOURLY REGIONAL WEATHER ROUNDUP
NATIONAL WEATHER SERVICE PHOENIX AZ
900 PM MST TUE MAR 28 2017

NOTE: FAIR INDICATES FEW OR NO CLOUDS BELOW 12,000 FEET WITH NO
SIGNIFICANT WEATHER AND/OR OBSTRUCTIONS TO VISIBILITY.

AZZ001>003-036-290500-
NORTHWEST ARIZONA

CITY           SKY/WX    TMP DP  RH WIND       PRES   REMARKS
BULLHEAD CITY  CLEAR     70  32  24 N8        29.97R
KINGMAN        CLEAR     54   5  14 VRB5      30.05R
$$

AZZ004>008-015-016-018-290500-
NORTH CENTRAL ARIZONA

CITY           SKY/WX    TMP DP  RH WIND       PRES   REMARKS
GRAND CANYON   CLEAR     41  21  44 N6        30.07R
WILLIAMS       CLEAR     39  21  48 N12G17    30.07R WCI  32
PRESCOTT       CLEAR     45  24  43 NW6       30.02R
FLAGSTAFF      PTCLDY    40  22  48 NW7       30.05R
PAYSON         CLOUDY    50  32  50 NW6       30.02R
PAGE           PTCLDY    54  23  30 NW6       30.02R
$$

AZZ009>014-017-290500-
NORTHEAST ARIZONA

CITY           SKY/WX    TMP DP  RH WIND       PRES   REMARKS
WINSLOW        CLOUDY    46  29  51 W9        29.97R
SAINT JOHNS    CLOUDY    43  40  89 CALM      29.95R
WINDOW ROCK    MOCLDY    42  30  62 NW10G21   29.93R
SHOW LOW       CLOUDY    39  32  75 CALM      30.00R
$$

AZZ023-290500-
GREATER PHOENIX AREA

CITY           SKY/WX    TMP DP  RH WIND       PRES   REMARKS
PHOENIX        PTCLDY    71  28  20 W12       29.85R
BUCKEYE        CLEAR     68  25  19 NW9       29.89R
LUKE AFB       PTCLDY    72  28  19 W17G29    29.84R
DEER VALLEY    PTCLDY    68  28  22 W8        29.86R
SCOTTSDALE     PTCLDY    71  27  19 W7        29.87R
MESA-GATEWAY   PTCLDY    68  30  24 SW8       29.88R
CHANDLER       CLEAR     70  28  21 SW13      29.87R
$$

AZZ027-028-290500-
SOUTHWEST MARICOPA COUNTY AND PINAL COUNTY

CITY           SKY/WX    TMP DP  RH WIND       PRES   REMARKS
CASA GRANDE    NOT AVBL
GILA BEND      CLEAR     70  21  16 SW3       29.89R
$$

AZZ503-504-507>509-290500-
SOUTHEAST ARIZONA

CITY           SKY/WX    TMP DP  RH WIND       PRES   REMARKS
TUCSON         CLEAR     64  31  28 CALM      29.95R
DAVIS-MONTHAN  CLEAR     60  32  34 NW7       29.94R
NOGALES        CLEAR     55  26  32 NW5       29.98R
SIERRA VISTA   CLEAR     49  27  41 NW8       30.00R
DOUGLAS        CLEAR     47  26  44 NW9       29.97R
SAFFORD        PTCLDY    55  35  47 S7        29.90R
$$

AZZ020-021-025-026-031-290500-
SOUTHWEST ARIZONA

CITY           SKY/WX    TMP DP  RH WIND       PRES   REMARKS
YUMA           CLEAR     74  20  13 NW7       29.91R
$$

CAZ031-033-041-043-047-048-061-290500-
SOUTHERN CALIFORNIA

CITY           SKY/WX    TMP DP  RH WIND       PRES   REMARKS
DOWNTOWN L.A.  CLEAR     67  51  56 CALM      29.97R
L.A. AIRPORT   CLEAR     62  53  72 N3        29.98R
SAN DIEGO      PTCLDY    64  48  56 CALM      30.02R
BURBANK        CLEAR     67  36  31 N7        29.99R
ONTARIO        CLEAR     64  33  31 SW7       29.99R
RIVERSIDE      CLEAR     66  34  30 NW3       29.99R
PALM SPRINGS   CLEAR     76  13   9 N8        29.99R
EL CENTRO NAS  CLEAR     69  19  15 W3        29.94R
IMPERIAL       CLEAR     73  24  16 NW6       29.92R
BLYTHE         CLEAR     71  18  13 N9        29.94R
NEEDLES        CLEAR     70  20  15 N6        29.97R
$$

NVZ020-UTZ003-290500-
SOUTHERN NEVADA-UTAH

CITY           SKY/WX    TMP DP  RH WIND       PRES   REMARKS
LAS VEGAS      PTCLDY    66  23  19 NE15      30.06R
SALT LAKE CITY PTCLDY    46  34  62 NW10      30.20R
$$

NMZ009-TXZ055-290500-
NEW MEXICO-WEST TEXAS

CITY           SKY/WX    TMP DP  RH WIND       PRES   REMARKS
ALBUQUERQUE    CLOUDY    45  36  70 N6        29.82R
EL PASO        PTCLDY    58  25  28 W16G26    29.82R
$$


........................KEY........................
SKY/WX - SKY CONDITION/WEATHER
TMP    - TEMPERATURE IN FAHRENHEIT
DP     - DEW POINT IN FAHRENHEIT
RH     - RELATIVE HUMIDITY IN PERCENT
WIND   - DIRECTION AND SPEED IN MILES PER HOUR (MPH)
VRB    - VARIABLE WIND DIRECTION
PRES   - MEAN SEA LEVEL PRESSURE IN INCHES OF MERCURY
         F - FALLING PRESSURE   R - RISING PRESSURE
         S - STEADY PRESSURE
VSB    - VISIBILITY IN MILES
HX     - HEAT INDEX IN FAHRENHEIT
WCI    - WIND CHILL INDEX IN FAHRENHEIT
TC     - TEMPERATURE IN CELSIUS WHICH IS ALSO KNOWN AS
         TEMPERATURE IN CENTIGRADE
AFB    - AIR FORCE BASE
         LUKE AFB IS LUKE AIR FORCE BASE
         DAVIS-MONTHAN IS DAVIS-MONTHAN AIR FORCE BASE
NAS    - NAVAL AIR STATION
         EL CENTRO NAS IS EL CENTRO NAVAL AIR STATION
N/A    - NOT AVAILABLE





USA.gov is the U.S. government's official web portal to all federal, state and local government web resources and services.